Location: *
(45.0500°N, 12.0500°E)
Time: 07:58:15
(UTC+00:00)

H-2A R/B - Pass Details

Date: 09 April 2020
Orbit: 734 x 836 km, 98.2° (Epoch: 02 June)

Event Time Altitude Azimuth Distance (km) Brightness Sun altitude
Rises 18:15:55 0° 153° (SSE) 3,287 4.9 -5.2°
Reaches altitude 10° 18:18:18 10° 150° (SSE) 2,346 4.1 -5.6°
Maximum altitude 18:23:22 59° 72° (ENE) 897 2.1 -6.5°
Drops below altitude 10° 18:28:20 10° 354° (N) 2,299 4.8 -7.3°
Sets 18:30:38 0° 351° (N) 3,215 5.6 -7.7°
